{"data":{"norad_id":64255,"intl_designator":"2025-119Y","name":"STARLINK-34211","alt_names":[],"object_type":"PAYLOAD","status":"ACTIVE","operator":null,"country":"US","launch_date":"2025-06-03","launch_site_code":"AFETR","launch_vehicle":null,"mission":null,"orbit_class":"UNKNOWN","rcs_meters":null,"size_class":null,"mass_kg":null,"dimensions":null,"purposes":["comms"],"wikipedia_slug":null,"has_3d_model":false,"image_url":null,"decayed_at":null,"tle_current":{"epoch":"2026-05-24T17:25:31.398240Z","epoch_age_seconds":101805,"freshness":"FRESH","line1":"1 64255U 25119Y   26144.72605785  .00013775  00000+0  50882-3 0  9995","line2":"2 64255  43.0011 238.0225 0001700 271.3700  88.6957 15.27602563 55799","mean_motion":15.27602563,"eccentricity":0.00017,"inclination_deg":43.0011,"raan_deg":238.0225,"arg_perigee_deg":271.37,"mean_anomaly_deg":88.6957,"bstar":0.00050882,"rev_number":5579,"period_min":94.265356374634,"perigee_km":481.81514498127,"apogee_km":484.14792528321,"semimajor_km":6861.1185351322,"source":"CELESTRAK","updated_at":"2026-05-25T13:38:20.356034Z"}}}